owner,sensor,date,latitude,longitude,vertical_datum,direction_of_sea_water_velocity,sea_water_speed,upward_sea_water_velocity,qcFlag 
TABS,ioos:station:wmo:42043:1,2012-10-01T00:00:00Z,28.9818,-94.9186,2.0,299.2067556,6.598939309,-99999.0,'11133222,11111222,99999999' 
TABS,ioos:station:wmo:42043:1,2012-10-01T00:30:00Z,28.9818,-94.9186,2.0,268.8707469,6.091182151,-99999.0,'11133222,11111222,99999999' 
TABS,ioos:station:wmo:42043:1,2012-10-01T01:00:00Z,28.9818,-94.9186,2.0,293.0971888,5.174794682,-99999.0,'11133222,11111222,99999999' 
TABS,ioos:station:wmo:42043:1,2012-10-01T01:30:00Z,28.9818,-94.9186,2.0,280.6649715,7.835336623,-99999.0,'11133222,11111222,99999999' 
TABS,ioos:station:wmo:42043:1,2012-10-01T02:00:00Z,28.9818,-94.9186,2.0,270.592297,9.680516515,-99999.0,'11133222,11111222,99999999' 
TABS,ioos:station:wmo:42043:1,2012-10-01T02:30:00Z,28.9818,-94.9186,2.0,263.1178715,10.5157596,-99999.0,'11111222,11111222,99999999' 
TABS,ioos:station:wmo:42043:1,2012-10-01T03:00:00Z,28.9818,-94.9186,2.0,278.5165736,7.765622963,-99999.0,'11133222,11111222,99999999' 
TABS,ioos:station:wmo:42043:1,2012-10-01T03:30:00Z,28.9818,-94.9186,2.0,263.8007563,10.74281155,-99999.0,'11111222,11111222,99999999' 
TABS,ioos:station:wmo:42043:1,2012-10-01T04:00:00Z,28.9818,-94.9186,2.0,277.4415057,15.28875404,-99999.0,'11111222,11111222,99999999' 
TABS,ioos:station:wmo:42043:1,2012-10-01T04:30:00Z,28.9818,-94.9186,2.0,269.5267825,13.33045386,-99999.0,'11111222,11111222,99999999' 
TABS,ioos:station:wmo:42043:1,2012-10-01T05:00:00Z,28.9818,-94.9186,2.0,265.3036939,16.85658328,-99999.0,'11111222,11111222,99999999' 
TABS,ioos:station:wmo:42043:1,2012-10-01T05:30:00Z,28.9818,-94.9186,2.0,273.7521412,16.50537185,-99999.0,'11111222,11111222,99999999' 
TABS,ioos:station:wmo:42043:1,2012-10-01T06:00:00Z,28.9818,-94.9186,2.0,265.6891494,15.43365478,-99999.0,'11111222,11111222,99999999' 
TABS,ioos:station:wmo:42043:1,2012-10-01T06:30:00Z,28.9818,-94.9186,2.0,277.7335873,16.94409927,-99999.0,'11111222,11111222,99999999' 
TABS,ioos:station:wmo:42043:1,2012-10-01T07:00:00Z,28.9818,-94.9186,2.0,265.6180377,17.93240921,-99999.0,'11111222,11111222,99999999' 
TABS,ioos:station:wmo:42043:1,2012-10-01T07:30:00Z,28.9818,-94.9186,2.0,255.3438497,17.27197151,-99999.0,'11111222,11111222,99999999' 
TABS,ioos:station:wmo:42043:1,2012-10-01T08:00:00Z,28.9818,-94.9186,2.0,270.6225604,20.26119444,-99999.0,'11111222,11111222,99999999' 
TABS,ioos:station:wmo:42043:1,2012-10-01T08:30:00Z,28.9818,-94.9186,2.0,271.9802228,20.26209515,-99999.0,'11111222,11111222,99999999' 
TABS,ioos:station:wmo:42043:1,2012-10-01T09:00:00Z,28.9818,-94.9186,2.0,279.4813583,20.21614454,-99999.0,'11111222,11111222,99999999' 
TABS,ioos:station:wmo:42043:1,2012-10-01T09:30:00Z,28.9818,-94.9186,2.0,272.7407356,19.45224409,-99999.0,'11111222,11111222,99999999' 
TABS,ioos:station:wmo:42043:1,2012-10-01T10:00:00Z,28.9818,-94.9186,2.0,269.2942402,17.87135417,-99999.0,'11111222,11111222,99999999' 
TABS,ioos:station:wmo:42043:1,2012-10-01T10:30:00Z,28.9818,-94.9186,2.0,266.830299,18.0876643,-99999.0,'11111222,11111222,99999999' 
TABS,ioos:station:wmo:42043:1,2012-10-01T11:00:00Z,28.9818,-94.9186,2.0,284.409863,18.24391679,-99999.0,'11111222,11111222,99999999' 
TABS,ioos:station:wmo:42043:1,2012-10-01T11:30:00Z,28.9818,-94.9186,2.0,276.9434497,16.79314741,-99999.0,'11111222,11111222,99999999' 
TABS,ioos:station:wmo:42043:1,2012-10-01T12:00:00Z,28.9818,-94.9186,2.0,285.7434811,14.0053704,-99999.0,'11111222,11111222,99999999' 
TABS,ioos:station:wmo:42043:1,2012-10-01T12:30:00Z,28.9818,-94.9186,2.0,284.6843633,15.66152611,-99999.0,'11111222,11111222,99999999' 
TABS,ioos:station:wmo:42043:1,2012-10-01T13:00:00Z,28.9818,-94.9186,2.0,282.1641375,15.66161231,-99999.0,'11111222,11111222,99999999' 
TABS,ioos:station:wmo:42043:1,2012-10-01T13:30:00Z,28.9818,-94.9186,2.0,280.5582646,18.2286039,-99999.0,'11111222,11111222,99999999' 
TABS,ioos:station:wmo:42043:1,2012-10-01T14:00:00Z,28.9818,-94.9186,2.0,268.0077739,17.55060398,-99999.0,'11111222,11111222,99999999' 
TABS,ioos:station:wmo:42043:1,2012-10-01T14:30:00Z,28.9818,-94.9186,2.0,266.3188053,20.8730568,-99999.0,'11111222,11111222,99999999' 
TABS,ioos:station:wmo:42043:1,2012-10-01T15:00:00Z,28.9818,-94.9186,2.0,274.74476,24.66450891,-99999.0,'11111222,11111222,99999999' 
TABS,ioos:station:wmo:42043:1,2012-10-01T15:30:00Z,28.9818,-94.9186,2.0,273.0063355,26.31620793,-99999.0,'11111222,11111222,99999999' 
TABS,ioos:station:wmo:42043:1,2012-10-01T16:00:00Z,28.9818,-94.9186,2.0,273.3379376,30.2312752,-99999.0,'11111222,11111222,99999999' 
TABS,ioos:station:wmo:42043:1,2012-10-01T16:30:00Z,28.9818,-94.9186,2.0,280.6782786,33.24566889,-99999.0,'11111222,11111222,99999999' 
TABS,ioos:station:wmo:42043:1,2012-10-01T17:00:00Z,28.9818,-94.9186,2.0,285.5432139,34.40829696,-99999.0,'11111222,11111222,99999999' 
TABS,ioos:station:wmo:42043:1,2012-10-01T17:30:00Z,28.9818,-94.9186,2.0,299.6208808,39.43321569,-99999.0,'11111222,11111222,99999999' 
TABS,ioos:station:wmo:42043:1,2012-10-01T18:00:00Z,28.9818,-94.9186,2.0,293.573008,41.6342179,-99999.0,'11111222,11111222,99999999' 
TABS,ioos:station:wmo:42043:1,2012-10-01T18:30:00Z,28.9818,-94.9186,2.0,295.4556769,42.94950524,-99999.0,'11111222,11111222,99999999' 
TABS,ioos:station:wmo:42043:1,2012-10-01T19:00:00Z,28.9818,-94.9186,2.0,298.6226192,42.60666732,-99999.0,'11111222,11111222,99999999' 
TABS,ioos:station:wmo:42043:1,2012-10-01T19:30:00Z,28.9818,-94.9186,2.0,295.3243278,42.94705229,-99999.0,'11111222,11111222,99999999' 
TABS,ioos:station:wmo:42043:1,2012-10-01T20:00:00Z,28.9818,-94.9186,2.0,296.5294391,42.74021174,-99999.0,'11111222,11111222,99999999' 
TABS,ioos:station:wmo:42043:1,2012-10-01T20:30:00Z,28.9818,-94.9186,2.0,293.4857665,45.1174556,-99999.0,'11111222,11111222,99999999' 
TABS,ioos:station:wmo:42043:1,2012-10-01T21:00:00Z,28.9818,-94.9186,2.0,295.2106545,39.91155347,-99999.0,'11111222,11111222,99999999' 
TABS,ioos:station:wmo:42043:1,2012-10-01T21:30:00Z,28.9818,-94.9186,2.0,297.7459557,37.11766291,-99999.0,'11111222,11111222,99999999' 
TABS,ioos:station:wmo:42043:1,2012-10-01T22:00:00Z,28.9818,-94.9186,2.0,304.9958328,40.53969166,-99999.0,'11111222,11111222,99999999' 
TABS,ioos:station:wmo:42043:1,2012-10-01T22:30:00Z,28.9818,-94.9186,2.0,302.0166811,27.72742505,-99999.0,'11111222,11111222,99999999' 
TABS,ioos:station:wmo:42043:1,2012-10-01T23:00:00Z,28.9818,-94.9186,2.0,307.2091379,28.74050278,-99999.0,'11111222,11111222,99999999' 
TABS,ioos:station:wmo:42043:1,2012-10-01T23:30:00Z,28.9818,-94.9186,2.0,307.0095323,23.85607051,-99999.0,'11111222,11111222,99999999' 
TABS,ioos:station:wmo:42043:1,2012-10-02T00:00:00Z,28.9818,-94.9186,2.0,307.8467681,17.60255663,-99999.0,'11111222,11111222,99999999' 
TABS,ioos:station:wmo:42043:1,2012-10-02T00:30:00Z,28.9818,-94.9186,2.0,313.9283291,32.50431664,-99999.0,'11111222,11111222,99999999' 
TABS,ioos:station:wmo:42043:1,2012-10-02T01:00:00Z,28.9818,-94.9186,2.0,313.202282,34.25497628,-99999.0,'11111222,11111222,99999999' 
TABS,ioos:station:wmo:42043:1,2012-10-02T01:30:00Z,28.9818,-94.9186,2.0,313.7769666,30.80152107,-99999.0,'11111222,11111222,99999999' 
TABS,ioos:station:wmo:42043:1,2012-10-02T02:00:00Z,28.9818,-94.9186,2.0,314.8389199,32.63310742,-99999.0,'11111222,11111222,99999999' 
TABS,ioos:station:wmo:42043:1,2012-10-02T02:30:00Z,28.9818,-94.9186,2.0,303.3976825,32.02880735,-99999.0,'11111222,11111222,99999999' 
TABS,ioos:station:wmo:42043:1,2012-10-02T03:00:00Z,28.9818,-94.9186,2.0,306.9658844,29.95004174,-99999.0,'11111222,11111222,99999999' 
TABS,ioos:station:wmo:42043:1,2012-10-02T03:30:00Z,28.9818,-94.9186,2.0,310.406517,32.48986303,-99999.0,'11111222,11111222,99999999' 
TABS,ioos:station:wmo:42043:1,2012-10-02T04:00:00Z,28.9818,-94.9186,2.0,305.988667,32.36783125,-99999.0,'11111222,11111222,99999999' 
TABS,ioos:station:wmo:42043:1,2012-10-02T04:30:00Z,28.9818,-94.9186,2.0,312.6832587,33.05598433,-99999.0,'11111222,11111222,99999999' 
TABS,ioos:station:wmo:42043:1,2012-10-02T05:00:00Z,28.9818,-94.9186,2.0,313.9411117,35.19164674,-99999.0,'11111222,11111222,99999999' 
TABS,ioos:station:wmo:42043:1,2012-10-02T05:30:00Z,28.9818,-94.9186,2.0,314.7584559,31.82715979,-99999.0,'11111222,11111222,99999999' 
TABS,ioos:station:wmo:42043:1,2012-10-02T06:00:00Z,28.9818,-94.9186,2.0,313.7793013,32.18773835,-99999.0,'11111222,11111222,99999999' 
TABS,ioos:station:wmo:42043:1,2012-10-02T06:30:00Z,28.9818,-94.9186,2.0,309.6807275,33.40618206,-99999.0,'11111222,11111222,99999999' 
TABS,ioos:station:wmo:42043:1,2012-10-02T07:00:00Z,28.9818,-94.9186,2.0,311.1444052,30.91397742,-99999.0,'11111222,11111222,99999999' 
TABS,ioos:station:wmo:42043:1,2012-10-02T07:30:00Z,28.9818,-94.9186,2.0,302.7414777,29.13962423,-99999.0,'11111222,11111222,99999999' 
TABS,ioos:station:wmo:42043:1,2012-10-02T08:00:00Z,28.9818,-94.9186,2.0,308.6542244,30.25866653,-99999.0,'11111222,11111222,99999999' 
TABS,ioos:station:wmo:42043:1,2012-10-02T08:30:00Z,28.9818,-94.9186,2.0,313.5255049,24.17691874,-99999.0,'11111222,11111222,99999999' 
TABS,ioos:station:wmo:42043:1,2012-10-02T09:00:00Z,28.9818,-94.9186,2.0,310.9041691,24.64906692,-99999.0,'11111222,11111222,99999999' 
TABS,ioos:station:wmo:42043:1,2012-10-02T09:30:00Z,28.9818,-94.9186,2.0,325.2224604,23.66777556,-99999.0,'11111222,11111222,99999999' 
TABS,ioos:station:wmo:42043:1,2012-10-02T10:00:00Z,28.9818,-94.9186,2.0,324.8222392,17.40958931,-99999.0,'11111222,11111222,99999999' 
TABS,ioos:station:wmo:42043:1,2012-10-02T10:30:00Z,28.9818,-94.9186,2.0,320.6539883,16.29321638,-99999.0,'11111222,11111222,99999999' 
TABS,ioos:station:wmo:42043:1,2012-10-02T11:00:00Z,28.9818,-94.9186,2.0,317.1105618,13.82624316,-99999.0,'11111222,11111222,99999999' 
TABS,ioos:station:wmo:42043:1,2012-10-02T11:30:00Z,28.9818,-94.9186,2.0,338.7916595,12.74309617,-99999.0,'11111222,11111222,99999999' 
TABS,ioos:station:wmo:42043:1,2012-10-02T12:00:00Z,28.9818,-94.9186,2.0,1.313838511,10.03263674,-99999.0,'11111222,11111222,99999999' 
TABS,ioos:station:wmo:42043:1,2012-10-02T12:30:00Z,28.9818,-94.9186,2.0,27.22091504,9.378683276,-99999.0,'11133222,11111222,99999999' 
TABS,ioos:station:wmo:42043:1,2012-10-02T13:00:00Z,28.9818,-94.9186,2.0,22.00085736,7.474282574,-99999.0,'11133222,11111222,99999999' 
TABS,ioos:station:wmo:42043:1,2012-10-02T13:30:00Z,28.9818,-94.9186,2.0,64.46635425,7.7022659,-99999.0,'11133222,11111222,99999999' 
TABS,ioos:station:wmo:42043:1,2012-10-02T14:00:00Z,28.9818,-94.9186,2.0,32.41006264,6.455548002,-99999.0,'11133222,11111222,99999999' 
TABS,ioos:station:wmo:42043:1,2012-10-02T14:30:00Z,28.9818,-94.9186,2.0,42.27380061,6.987052311,-99999.0,'11133222,11111222,99999999' 
TABS,ioos:station:wmo:42043:1,2012-10-02T15:00:00Z,28.9818,-94.9186,2.0,32.01636001,5.602088896,-99999.0,'11133222,11111222,99999999' 
TABS,ioos:station:wmo:42043:1,2012-10-02T15:30:00Z,28.9818,-94.9186,2.0,11.75389777,4.810873102,-99999.0,'11133222,11111222,99999999' 
TABS,ioos:station:wmo:42043:1,2012-10-02T16:00:00Z,28.9818,-94.9186,2.0,52.90963328,4.676034645,-99999.0,'11133222,11111222,99999999' 
TABS,ioos:station:wmo:42043:1,2012-10-02T16:30:00Z,28.9818,-94.9186,2.0,25.18484867,3.712950309,-99999.0,'11133222,11111222,99999999' 
TABS,ioos:station:wmo:42043:1,2012-10-02T17:00:00Z,28.9818,-94.9186,2.0,26.16171572,3.810354314,-99999.0,'11133222,11111222,99999999' 
TABS,ioos:station:wmo:42043:1,2012-10-02T17:30:00Z,28.9818,-94.9186,2.0,26.96387054,4.499077683,-99999.0,'11133222,11111222,99999999' 
TABS,ioos:station:wmo:42043:1,2012-10-02T18:00:00Z,28.9818,-94.9186,2.0,345.2358448,4.198630729,-99999.0,'11133222,11111222,99999999' 
TABS,ioos:station:wmo:42043:1,2012-10-02T18:30:00Z,28.9818,-94.9186,2.0,357.1904089,3.263924019,-99999.0,'11133222,11111222,99999999' 
TABS,ioos:station:wmo:42043:1,2012-10-02T19:00:00Z,28.9818,-94.9186,2.0,20.92466327,3.27604945,-99999.0,'11133222,11111222,99999999' 
TABS,ioos:station:wmo:42043:1,2012-10-02T19:30:00Z,28.9818,-94.9186,2.0,7.731977033,3.865139066,-99999.0,'11133222,11111222,99999999' 
TABS,ioos:station:wmo:42043:1,2012-10-02T20:00:00Z,28.9818,-94.9186,2.0,347.1876922,3.066349621,-99999.0,'11133222,11111222,99999999' 
TABS,ioos:station:wmo:42043:1,2012-10-02T20:30:00Z,28.9818,-94.9186,2.0,7.765358319,1.998324298,-99999.0,'11133222,11111222,99999999' 
TABS,ioos:station:wmo:42043:1,2012-10-02T21:00:00Z,28.9818,-94.9186,2.0,25.47051148,3.511267577,-99999.0,'11133222,11111222,99999999' 
TABS,ioos:station:wmo:42043:1,2012-10-02T21:30:00Z,28.9818,-94.9186,2.0,71.8008775,1.536879956,-99999.0,'11133222,11111222,99999999' 
TABS,ioos:station:wmo:42043:1,2012-10-02T22:00:00Z,28.9818,-94.9186,2.0,23.42884848,3.923467854,-99999.0,'11133222,11111222,99999999' 
TABS,ioos:station:wmo:42043:1,2012-10-02T22:30:00Z,28.9818,-94.9186,2.0,48.86082883,4.620822438,-99999.0,'11133222,11111222,99999999' 
TABS,ioos:station:wmo:42043:1,2012-10-02T23:00:00Z,28.9818,-94.9186,2.0,20.09539466,5.238931189,-99999.0,'11133222,11111222,99999999' 
TABS,ioos:station:wmo:42043:1,2012-10-02T23:30:00Z,28.9818,-94.9186,2.0,22.97614073,8.787092807,-99999.0,'11133222,11111222,99999999' 
TABS,ioos:station:wmo:42043:1,2012-10-03T00:00:00Z,28.9818,-94.9186,2.0,30.62166483,6.890936076,-99999.0,'11133222,11111222,99999999' 
TABS,ioos:station:wmo:42043:1,2012-10-03T00:30:00Z,28.9818,-94.9186,2.0,32.1401418,6.767045145,-99999.0,'11133222,11111222,99999999' 
TABS,ioos:station:wmo:42043:1,2012-10-03T01:00:00Z,28.9818,-94.9186,2.0,58.57387168,8.074416388,-99999.0,'11133222,11111222,99999999' 
TABS,ioos:station:wmo:42043:1,2012-10-03T01:30:00Z,28.9818,-94.9186,2.0,94.67109704,8.227326419,-99999.0,'11133222,11111222,99999999' 
TABS,ioos:station:wmo:42043:1,2012-10-03T02:00:00Z,28.9818,-94.9186,2.0,118.4631414,9.316098969,-99999.0,'11133222,11111222,99999999' 
TABS,ioos:station:wmo:42043:1,2012-10-03T02:30:00Z,28.9818,-94.9186,2.0,110.5981263,7.958800161,-99999.0,'11133222,11111222,99999999' 
TABS,ioos:station:wmo:42043:1,2012-10-03T03:00:00Z,28.9818,-94.9186,2.0,95.14544614,8.474148925,-99999.0,'11133222,11111222,99999999' 
TABS,ioos:station:wmo:42043:1,2012-10-03T03:30:00Z,28.9818,-94.9186,2.0,99.24609112,4.356604182,-99999.0,'11133222,11111222,99999999' 
TABS,ioos:station:wmo:42043:1,2012-10-03T04:00:00Z,28.9818,-94.9186,2.0,92.35790046,3.402881132,-99999.0,'11133222,11111222,99999999' 
TABS,ioos:station:wmo:42043:1,2012-10-03T04:30:00Z,28.9818,-94.9186,2.0,40.23647468,4.087052728,-99999.0,'11133222,11111222,99999999' 
TABS,ioos:station:wmo:42043:1,2012-10-03T05:00:00Z,28.9818,-94.9186,2.0,47.49908837,3.73,-99999.0,'11133222,11111222,99999999' 
TABS,ioos:station:wmo:42043:1,2012-10-03T05:30:00Z,28.9818,-94.9186,2.0,14.8115122,2.151487857,-99999.0,'11133222,11111222,99999999' 
TABS,ioos:station:wmo:42043:1,2012-10-03T06:00:00Z,28.9818,-94.9186,2.0,309.1987424,1.329097438,-99999.0,'11133222,11111222,99999999' 
TABS,ioos:station:wmo:42043:1,2012-10-03T06:30:00Z,28.9818,-94.9186,2.0,346.5477127,3.094915185,-99999.0,'11133222,11111222,99999999' 
TABS,ioos:station:wmo:42043:1,2012-10-03T07:00:00Z,28.9818,-94.9186,2.0,30.63555637,1.19707978,-99999.0,'11133222,11111222,99999999' 
TABS,ioos:station:wmo:42043:1,2012-10-03T07:30:00Z,28.9818,-94.9186,2.0,21.22987434,4.280490626,-99999.0,'11133222,11111222,99999999' 
TABS,ioos:station:wmo:42043:1,2012-10-03T08:00:00Z,28.9818,-94.9186,2.0,334.6760883,2.478144467,-99999.0,'11133222,11111222,99999999' 
TABS,ioos:station:wmo:42043:1,2012-10-03T08:30:00Z,28.9818,-94.9186,2.0,332.2040254,3.538276417,-99999.0,'11133222,11111222,99999999' 
TABS,ioos:station:wmo:42043:1,2012-10-03T09:00:00Z,28.9818,-94.9186,2.0,353.9043632,5.179285665,-99999.0,'11133222,11111222,99999999' 
TABS,ioos:station:wmo:42043:1,2012-10-03T09:30:00Z,28.9818,-94.9186,2.0,294.8864242,3.968488377,-99999.0,'11133222,11111222,99999999' 
TABS,ioos:station:wmo:42043:1,2012-10-03T10:00:00Z,28.9818,-94.9186,2.0,312.0937611,3.207319753,-99999.0,'11133222,11111222,99999999' 
TABS,ioos:station:wmo:42043:1,2012-10-03T10:30:00Z,28.9818,-94.9186,2.0,330.6349488,4.119283918,-99999.0,'11133222,11111222,99999999' 
TABS,ioos:station:wmo:42043:1,2012-10-03T11:00:00Z,28.9818,-94.9186,2.0,339.621124,5.685886035,-99999.0,'11133222,11111222,99999999' 
TABS,ioos:station:wmo:42043:1,2012-10-03T11:30:00Z,28.9818,-94.9186,2.0,325.9011364,6.992174197,-99999.0,'11133222,11111222,99999999' 
TABS,ioos:station:wmo:42043:1,2012-10-03T12:00:00Z,28.9818,-94.9186,2.0,334.8972928,6.835649201,-99999.0,'11133222,11111222,99999999' 
TABS,ioos:station:wmo:42043:1,2012-10-03T12:30:00Z,28.9818,-94.9186,2.0,300.6855223,8.465270226,-99999.0,'11133222,11111222,99999999' 
TABS,ioos:station:wmo:42043:1,2012-10-03T13:00:00Z,28.9818,-94.9186,2.0,59.47292128,9.902615816,-99999.0,'11133222,11111222,99999999' 
TABS,ioos:station:wmo:42043:1,2012-10-03T13:30:00Z,28.9818,-94.9186,2.0,350.7128918,8.612903111,-99999.0,'11133222,11111222,99999999' 
TABS,ioos:station:wmo:42043:1,2012-10-03T14:00:00Z,28.9818,-94.9186,2.0,23.11436439,10.69885975,-99999.0,'11111222,11111222,99999999' 
TABS,ioos:station:wmo:42043:1,2012-10-03T14:30:00Z,28.9818,-94.9186,2.0,32.4784558,12.32819533,-99999.0,'11111222,11111222,99999999' 
TABS,ioos:station:wmo:42043:1,2012-10-03T15:00:00Z,28.9818,-94.9186,2.0,358.6072778,9.872917502,-99999.0,'11133222,11111222,99999999' 
TABS,ioos:station:wmo:42043:1,2012-10-03T15:30:00Z,28.9818,-94.9186,2.0,36.88042604,11.01400018,-99999.0,'11111222,11111222,99999999' 
TABS,ioos:station:wmo:42043:1,2012-10-03T16:00:00Z,28.9818,-94.9186,2.0,50.01530397,13.50795691,-99999.0,'11111222,11111222,99999999' 
TABS,ioos:station:wmo:42043:1,2012-10-03T16:30:00Z,28.9818,-94.9186,2.0,53.83597571,12.01491157,-99999.0,'11111222,11111222,99999999' 
TABS,ioos:station:wmo:42043:1,2012-10-03T17:00:00Z,28.9818,-94.9186,2.0,63.99990989,11.79359572,-99999.0,'11111222,11111222,99999999' 
TABS,ioos:station:wmo:42043:1,2012-10-03T17:30:00Z,28.9818,-94.9186,2.0,66.77549698,11.58910695,-99999.0,'11111222,11111222,99999999' 
TABS,ioos:station:wmo:42043:1,2012-10-03T18:00:00Z,28.9818,-94.9186,2.0,68.08007851,10.76849572,-99999.0,'11111222,11111222,99999999' 
TABS,ioos:station:wmo:42043:1,2012-10-03T18:30:00Z,28.9818,-94.9186,2.0,81.99605657,11.56263811,-99999.0,'11111222,11111222,99999999' 
TABS,ioos:station:wmo:42043:1,2012-10-03T19:00:00Z,28.9818,-94.9186,2.0,75.56797081,12.63883302,-99999.0,'11111222,11111222,99999999' 
TABS,ioos:station:wmo:42043:1,2012-10-03T19:30:00Z,28.9818,-94.9186,2.0,69.50231092,12.65098415,-99999.0,'11111222,11111222,99999999' 
TABS,ioos:station:wmo:42043:1,2012-10-03T20:00:00Z,28.9818,-94.9186,2.0,86.43790822,12.55425426,-99999.0,'11111222,11111222,99999999' 
TABS,ioos:station:wmo:42043:1,2012-10-03T20:30:00Z,28.9818,-94.9186,2.0,79.10719587,11.8535733,-99999.0,'11111222,11111222,99999999' 
TABS,ioos:station:wmo:42043:1,2012-10-03T21:00:00Z,28.9818,-94.9186,2.0,86.14846963,12.20757142,-99999.0,'11111222,11111222,99999999' 
TABS,ioos:station:wmo:42043:1,2012-10-03T21:30:00Z,28.9818,-94.9186,2.0,78.88218004,14.62446238,-99999.0,'11111222,11111222,99999999' 
TABS,ioos:station:wmo:42043:1,2012-10-03T22:00:00Z,28.9818,-94.9186,2.0,60.75466986,11.66715047,-99999.0,'11111222,11111222,99999999' 
TABS,ioos:station:wmo:42043:1,2012-10-03T22:30:00Z,28.9818,-94.9186,2.0,73.68213379,9.930005035,-99999.0,'11133222,11111222,99999999' 
TABS,ioos:station:wmo:42043:1,2012-10-03T23:00:00Z,28.9818,-94.9186,2.0,33.77944468,10.68353874,-99999.0,'11111222,11111222,99999999' 
TABS,ioos:station:wmo:42043:1,2012-10-03T23:30:00Z,28.9818,-94.9186,2.0,36.98827899,9.69002064,-99999.0,'11133222,11111222,99999999' 
TABS,ioos:station:wmo:42043:1,2012-10-04T00:00:00Z,28.9818,-94.9186,2.0,11.49316904,7.980006266,-99999.0,'11133222,11111222,99999999' 
TABS,ioos:station:wmo:42043:1,2012-10-04T00:30:00Z,28.9818,-94.9186,2.0,341.0444496,10.43594749,-99999.0,'11111222,11111222,99999999' 
TABS,ioos:station:wmo:42043:1,2012-10-04T01:00:00Z,28.9818,-94.9186,2.0,334.5462119,10.60990104,-99999.0,'11111222,11111222,99999999' 
TABS,ioos:station:wmo:42043:1,2012-10-04T01:30:00Z,28.9818,-94.9186,2.0,329.9153196,12.74727422,-99999.0,'11111222,11111222,99999999' 
TABS,ioos:station:wmo:42043:1,2012-10-04T02:00:00Z,28.9818,-94.9186,2.0,337.73539,12.16715661,-99999.0,'11111222,11111222,99999999' 
TABS,ioos:station:wmo:42043:1,2012-10-04T02:30:00Z,28.9818,-94.9186,2.0,349.4414769,12.71530181,-99999.0,'11111222,11111222,99999999' 
TABS,ioos:station:wmo:42043:1,2012-10-04T03:00:00Z,28.9818,-94.9186,2.0,327.6664757,11.83507076,-99999.0,'11111222,11111222,99999999' 
TABS,ioos:station:wmo:42043:1,2012-10-04T03:30:00Z,28.9818,-94.9186,2.0,329.8466377,15.64737997,-99999.0,'11111222,11111222,99999999' 
TABS,ioos:station:wmo:42043:1,2012-10-04T04:00:00Z,28.9818,-94.9186,2.0,347.2284375,13.29904132,-99999.0,'11111222,11111222,99999999' 
TABS,ioos:station:wmo:42043:1,2012-10-04T04:30:00Z,28.9818,-94.9186,2.0,339.951081,11.1134918,-99999.0,'11111222,11111222,99999999' 
TABS,ioos:station:wmo:42043:1,2012-10-04T05:00:00Z,28.9818,-94.9186,2.0,343.5118791,11.4508908,-99999.0,'11111222,11111222,99999999' 
TABS,ioos:station:wmo:42043:1,2012-10-04T05:30:00Z,28.9818,-94.9186,2.0,339.8746974,11.68337708,-99999.0,'11111222,11111222,99999999' 
TABS,ioos:station:wmo:42043:1,2012-10-04T06:00:00Z,28.9818,-94.9186,2.0,336.4408247,9.382030697,-99999.0,'11133222,11111222,99999999' 
TABS,ioos:station:wmo:42043:1,2012-10-04T06:30:00Z,28.9818,-94.9186,2.0,337.7835793,8.198664525,-99999.0,'11133222,11111222,99999999' 
TABS,ioos:station:wmo:42043:1,2012-10-04T07:00:00Z,28.9818,-94.9186,2.0,336.8259417,9.300435474,-99999.0,'11133222,11111222,99999999' 
TABS,ioos:station:wmo:42043:1,2012-10-04T07:30:00Z,28.9818,-94.9186,2.0,339.823744,9.36466764,-99999.0,'11133222,11111222,99999999' 
TABS,ioos:station:wmo:42043:1,2012-10-04T08:00:00Z,28.9818,-94.9186,2.0,343.26198,8.437493704,-99999.0,'11133222,11111222,99999999' 
TABS,ioos:station:wmo:42043:1,2012-10-04T08:30:00Z,28.9818,-94.9186,2.0,343.2451676,8.845529945,-99999.0,'11133222,11111222,99999999' 
TABS,ioos:station:wmo:42043:1,2012-10-04T09:00:00Z,28.9818,-94.9186,2.0,333.9305605,7.759445857,-99999.0,'11133222,11111222,99999999' 
TABS,ioos:station:wmo:42043:1,2012-10-04T09:30:00Z,28.9818,-94.9186,2.0,308.9868987,9.584539634,-99999.0,'11133222,11111222,99999999' 
TABS,ioos:station:wmo:42043:1,2012-10-04T10:00:00Z,28.9818,-94.9186,2.0,321.0639269,11.64757485,-99999.0,'11111222,11111222,99999999' 
TABS,ioos:station:wmo:42043:1,2012-10-04T10:30:00Z,28.9818,-94.9186,2.0,310.3266311,10.84773248,-99999.0,'11111222,11111222,99999999' 
TABS,ioos:station:wmo:42043:1,2012-10-04T11:00:00Z,28.9818,-94.9186,2.0,313.1358389,12.38799822,-99999.0,'11111222,11111222,99999999' 
TABS,ioos:station:wmo:42043:1,2012-10-04T11:30:00Z,28.9818,-94.9186,2.0,290.8352017,12.98938028,-99999.0,'11111222,11111222,99999999' 
TABS,ioos:station:wmo:42043:1,2012-10-04T12:00:00Z,28.9818,-94.9186,2.0,291.9095246,12.83714143,-99999.0,'11111222,11111222,99999999' 
TABS,ioos:station:wmo:42043:1,2012-10-04T12:30:00Z,28.9818,-94.9186,2.0,275.9810065,13.72470036,-99999.0,'11111222,11111222,99999999' 
TABS,ioos:station:wmo:42043:1,2012-10-04T13:00:00Z,28.9818,-94.9186,2.0,265.8524695,16.5934475,-99999.0,'11111222,11111222,99999999' 
TABS,ioos:station:wmo:42043:1,2012-10-04T13:30:00Z,28.9818,-94.9186,2.0,254.647636,17.63941609,-99999.0,'11111222,11111222,99999999' 
TABS,ioos:station:wmo:42043:1,2012-10-04T14:00:00Z,28.9818,-94.9186,2.0,251.9667415,18.02542649,-99999.0,'11111222,11111222,99999999' 
TABS,ioos:station:wmo:42043:1,2012-10-04T14:30:00Z,28.9818,-94.9186,2.0,247.8589667,19.13066909,-99999.0,'11111222,11111222,99999999' 
TABS,ioos:station:wmo:42043:1,2012-10-04T15:00:00Z,28.9818,-94.9186,2.0,251.7598508,16.70957211,-99999.0,'11111222,11111222,99999999' 
TABS,ioos:station:wmo:42043:1,2012-10-04T15:30:00Z,28.9818,-94.9186,2.0,262.8586617,17.85852178,-99999.0,'11111222,11111222,99999999' 
TABS,ioos:station:wmo:42043:1,2012-10-04T16:00:00Z,28.9818,-94.9186,2.0,261.9377745,16.61419273,-99999.0,'11111222,11111222,99999999' 